Flag for Netherlands Weather past 2 weeks in Groningen, Netherlands

Now
63 °F

Fog.


Feels Like: 63 °F
Forecast: 56 / 69 °F
Wind: 3 mph from Southwest

Location: Groningen Eelde Airport

Current Time: Jul 5, 2015 at 5:31:13 AM

Latest Report: Jul 5, 2015 at 4:55 AM


Visibility: 1 mi

Pressure: 30.09 "Hg

Humidity: 100%

Dew point: 63 °F

Location of GroningenLocation

Historic Weather in Groningen — Graph

°F

Groningen temperature yesterday

Maximum temperature yesterday: 90 °F (at 1:55 PM)
Minimum temperature yesterday: 63 °F (at 5:25 AM)
Average temperature yesterday: 76 °F

Past Weeks' High & Low Weather Summary

 TemperatureHumidityPressure
High95 °F (Jul 2, 4:55 PM)100% (Jun 20, 3:55 AM)30.24 "Hg (Jun 20, 3:55 AM)
Low45 °F (Jun 23, 2:25 AM)35% (Jul 1, 3:25 PM)29.65 "Hg (Jun 22, 7:25 PM)
Average63 °F79%30.05 "Hg
* Reported Jun 20 3:25 AM — Jul 5 3:55 AM, Groningen, Weather by CustomWeather, © 2015

Note: Actual official high and low records may vary slightly from our data, if they occured in-between our weather recording intervals... More about our weather records

Advertising

Groningen weather history for previous 24 hours

 ConditionsComfort  
Time TempWeatherWind HumidityBarometerVisibility
3:55 AM
Sun, Jul 5
64 °FFog.1 mph100%30.09 "Hg2 mi
3:25 AM64 °FFog.2 mph100%30.09 "Hg2 mi
2:55 AM63 °FFog.3 mph100%30.09 "Hg3 mi
2:25 AM64 °FFog.2 mph94%30.09 "Hg3 mi
1:55 AM64 °FClear.2 mph94%30.09 "Hg4 mi
1:25 AM66 °FClear.1 mph94%30.09 "Hg5 mi
12:55 AM66 °FMild.6 mph94%30.09 "Hg4 mi
12:25 AM66 °FClear.3 mph88%30.09 "Hg5 mi
11:55 PM
Sat, Jul 4
66 °FClear.3 mph94%30.09 "Hg6 mi
11:25 PM68 °FClear.5 mph83%30.09 "HgN/A
10:55 PM68 °FClear.5 mph83%30.09 "HgN/A
10:25 PM72 °FClear.6 mph73%30.09 "HgN/A
9:55 PM73 °FClear.7 mph74%30.09 "HgN/A
9:25 PM75 °FClear.6 mph69%30.09 "HgN/A
8:55 PM77 °FClear.6 mph65%30.09 "HgN/A
8:25 PM79 °FClear.6 mph58%30.07 "HgN/A
7:55 PM79 °FClear.6 mph61%30.07 "HgN/A
7:25 PM82 °FWarm.9 mph45%30.07 "HgN/A
6:55 PM84 °FWarm.10 mph43%30.07 "HgN/A
6:25 PM86 °FWarm.9 mph52%30.04 "HgN/A
5:55 PM86 °FWarm.13 mph46%30.07 "HgN/A
5:25 PM90 °FHot.10 mph55%30.04 "HgN/A
4:55 PM88 °FWarm.13 mph59%30.04 "HgN/A
4:25 PM88 °FSunny.12 mph59%30.04 "HgN/A
3:55 PM90 °FSunny.13 mph59%30.04 "HgN/A
3:25 PM90 °FSunny.10 mph59%30.04 "HgN/A
2:55 PM90 °FSunny.10 mph59%30.01 "HgN/A
2:25 PM88 °FClear.12 mph62%30.01 "HgN/A
1:55 PM90 °FSunny.8 mph63%30.01 "HgN/A
1:25 PM88 °FPassing clouds.6 mph62%30.04 "HgN/A
12:55 PM86 °FWarm.7 mph66%30.04 "HgN/A
12:25 PM84 °FSunny.6 mph66%30.04 "HgN/A
11:55 AM82 °FWarm.9 mph70%30.04 "HgN/A
11:25 AM81 °FSunny.8 mph70%30.04 "HgN/A
10:55 AM79 °FClear.8 mph74%30.04 "HgN/A
10:25 AM79 °FSunny.10 mph70%30.04 "Hg1 mi
9:55 AM75 °FSunny.10 mph78%30.04 "HgN/A
9:25 AM75 °FSunny.10 mph78%30.07 "HgN/A
8:55 AM73 °FSunny.8 mph78%30.07 "HgN/A
8:25 AM70 °FSunny.7 mph88%30.07 "HgN/A
7:55 AM70 °FClear.8 mph83%30.07 "Hg6 mi
7:25 AM68 °FPassing clouds.8 mph88%30.07 "Hg4 mi
6:55 AM66 °FClear.8 mph94%30.09 "Hg4 mi
6:25 AM66 °FMild.8 mph94%30.09 "Hg4 mi
5:55 AM64 °FMild.7 mph100%30.09 "Hg4 mi
5:25 AM63 °FFog.7 mph100%30.12 "Hg2 mi
Weather by CustomWeather, © 2015

See weather overviewHow to use our weather pages